Location: Nelson
(38.9945°N, 93.0321°W)
Time: 15:34:33
(UTC+00:00)

ACS3 Solar Sail - Pass Details

Date: 24 June 2024
Orbit: 993 x 1023 km, 97.4° (Epoch: 19 July)

Event Time Altitude Azimuth Distance (km) Brightness Sun altitude
Exits shadow 04:51:48 18° 227° (SW) 2,256 6.5 -24.7°
Maximum altitude 04:54:58 26° 268° (W) 1,852 6.4 -24.9°
Drops below altitude 10° 05:00:04 10° 323° (NW) 2,765 8.1 -25.2°
Sets 05:03:01 0° 336° (NNW) 3,717 9.2 -25.4°
